Showing default

KUIPER-00434, 68938

Orbit data source: Space-Track

KUIPER-00434, 68938 is a payload satellite owned by Kuiper Systems (US) in LEO that was launched on Thu, 30 Apr 2026 UTC via an ARIANE 64 launch vehicle from the Air Force Eastern Test Range (AFETR). Payload-class satellites include a variety of spacecraft equipped with specific instruments for various scientific and technological missions. These include communications satellites like Starlink; space stations such as the ISS; scientific satellites like the Hubble; Earth observation satellites from companies like Planet Labs, Umbra, and HawkEye 360; GPS; miniature CubeSats for education and research; and military/defense satellites.

Loading next visibility...
Identifier
68938, 2026-098V
Orbit
LEO
Country
Flag of USUS
Related business
Manufacturer
Kuiper Systems
Mission
Operational spacecraft
Bus & Motor
KUIPER, Unknown motor
Mass
~490 kg wet, ~490 kg dry
Launch date (UTC)
2026-04-30 (6 days ago)
Launch vehicle
ARIANE 64
Launch site
Air Force Eastern Test Range (AFETR)
Object type
Payload
Rocket body
Debris
Shape & HBR
Unknown
Radar Cross Section
RCS unknown

Expand to show TLE details & history
Last TLE update: 6 hours ago

TLE from 6 hours ago
0 KUIPER-00434
1 68938U 26098V   26126.25002315  .00056887  00000-0  16809-2 0  9994
2 68938  51.8739 269.7778 0007536 354.3954  83.1699 15.34368779  1302
Epoch: 2026-05-06T06:00Z
TLE epoch observation values (Epoch: 2026-05-06T06:00:02.000Z)
Latitude
50.36782°
Longitude
26.11028°
Altitude
467.95 km
Speed
7.639 km/s
True Right ascension
22h 40m 55s
True Declination
50° 11' 30"
Sunlit
Object was in daylight at epoch
Visualization orbit readout
Latitude
Unknown
Longitude
Unknown
Altitude
Unknown
Speed
Unknown
Apparent Right ascension
Unknown
Apparent Declination
Unknown
Sunlit
N/A
Visualization observer readout
Local Sidereal Time
20:27:04
Azimuth
Unknown
Elevation
Unknown
Doppler factor
Unknown
Orbital elements
Apogee altitude
468.418 km
Perigee altitude
458.107 km
Semi-major axis
6,841.399 km
Eccentricity
0.00075
Inclination
51.8739°
RAAN
269.7778°
Arg. of periapsis
354.3954°
True anomaly
83.25565°
Mean anomaly
83.1699°
Eccentric anomaly
83.21278°
Mean motion
3.83553 °/min
Orbital period
93.86 mins
BSTAR
0.0016809
Loading maneuver chart data...
Computing Atmospheric mass density...
Loading historical data...
Loading historical data...
Loading historical data...
Loading historical data...
Loading historical data...
Loading historical data...
Loading historical data...

Documentation

Showing up to 5 results
|